AO-07 1 07530U 74089B 15308.92431491 -.00000023 00000-0 13127-3 0 9996 2 07530 101.5414 280.4840 0012327 030.1971 351.6256 12.53617504874668 FO-29 1 24278U 96046B 15309.47255762 .00000031 00000-0 65076-4 0 9996 2 24278 98.5618 259.2809 0351321 64.6751 45.2683 13.53059038949132 SO-33 1 25509U 98061B 15309.79278438 .00000264 00000-0 37183-4 0 9999 2 25509 31.4323 168.5303 0347813 235.0411 121.7079 14.30089041889706 RS-22 1 27939U 03042A 15309.75994597 .00000586 00000-0 11479-3 0 9996 2 27939 97.8579 105.5163 0012190 301.3745 58.6271 14.66202726646937 HO-68 1 36122U 09072B 15309.69002744 -.00000059 00000-0 -43517-4 0 9992 2 36122 100.1761 349.3395 0007911 150.9230 209.2328 13.16330341283077 AO-73 1 39444U 13066AE 15309.15464776 .00001507 00000-0 19724-3 0 9997 2 39444 97.7143 6.6449 0060249 37.1727 323.3634 14.80585767104273 EO-79 1 40025U 14033R 15309.76529581 .00001499 00000-0 17131-3 0 9992 2 40025 97.9399 210.1472 0014301 81.0671 279.2163 14.87494537 74832 XW-2A 1 40903U 15049E 15309.85269854 .00007556 00000-0 23280-3 0 9991 2 40903 97.4536 317.5796 0015707 213.3133 268.3547 15.33793567 7131 XW-2C 1 40906U 15049H 15309.86646862 .00003108 00000-0 18212-3 0 9991 2 40906 97.4557 316.9462 0017867 91.3943 353.0725 15.12395146 7084 LILACSAT-2 1 40908U 15049K 15309.88333928 .00002284 00000-0 13702-3 0 9994 2 40908 97.4627 316.9629 0018537 85.4385 359.3742 15.11801067 7089 XW-2E 1 40909U 15049L 15309.85726856 .00004706 00000-0 27109-3 0 9995 2 40909 97.4561 316.9585 0017320 94.4786 349.3912 15.12760900 7081 UO-11 1 14781U 84021B 15309.16691966 .00000607 00000-0 81842-4 0 9998 2 14781 97.7840 2.6501 0007928 339.9977 20.0925 14.82560268702914 AO-16 1 20439U 90005D 15309.44633946 .00000115 00000-0 58554-4 0 9997 2 20439 98.5517 243.6317 0011963 101.8471 12.1015 14.32582230346961 LO-19 1 20442U 90005G 15309.41121485 .00000096 00000-0 51197-4 0 9992 2 20442 98.5224 242.7245 0012963 90.4916 269.7753 14.32771514347165 AO-27 1 22825U 93061C 15307.93286803 .00000103 00000-0 57299-4 0 9993 2 22825 098.7267 258.1938 0007315 259.0593 100.9766 14.29914069152636 IO-26 1 22826U 93061D 15309.84721361 .00000101 00000-0 56390-4 0 9998 2 22826 98.7214 260.2628 0007888 243.2184 116.8192 14.30234649153333 GO-32 1 25397U 98043D 15309.09989735 .00000059 00000-0 44520-4 0 9991 2 25397 98.5376 255.2360 0000261 335.7517 87.5851 14.23567352899849 NO-44 1 26931U 01043C 15309.04910312 .00000083 00000-0 63618-4 0 9996 2 26931 67.0504 173.7260 0006523 277.1982 82.8377 14.30356000735948 SO-50 1 27607U 02058C 15308.94235219 .00000645 00000-0 11160-3 0 9996 2 27607 064.5533 128.9524 0082601 261.4106 097.7631 14.74903884691915 CO-55 1 27844U 03031E 15309.41803769 .00000202 00000-0 11171-3 0 9996 2 27844 98.6958 315.9368 0008687 251.0048 109.0189 14.21866811640507 CO-57 1 27848U 03031J 15308.99082709 .00000186 00000-0 10495-3 0 9994 2 27848 98.7055 315.4956 0008570 261.0567 151.7132 14.21504785640350 AO-51 1 28375U 04025K 15307.88059361 .00000181 00000-0 66721-4 0 9998 2 28375 098.3053 244.3918 0081442 267.7720 091.4142 14.41714835596555 CP3 1 31129U 07012N 15308.88097620 .00000756 00000-0 17195-3 0 9997 2 31129 98.0000 268.6912 0095081 235.0265 178.1210 14.56023145453592 CO-65 1 32785U 08021C 15309.89107259 .00001145 00000-0 13308-3 0 9994 2 32785 97.6327 348.1279 0012375 324.0431 88.9743 14.87166782407291 PRISM 1 33493U 09002B 15309.84987569 .00002635 00000-0 25295-3 0 9999 2 33493 98.2368 154.1545 0015173 223.0785 136.9270 14.93946531367727 SOHLA-1 1 33496U 09002E 15309.41148325 .00000344 00000-0 63867-4 0 9997 2 33496 98.2314 78.6654 0007582 78.7795 328.6105 14.71460751363941 TISAT-1 1 36799U 10035E 15309.83565954 .00002218 00000-0 24126-3 0 9997 2 36799 98.0214 51.9520 0014098 102.2575 21.0031 14.89047863288034 STUDSAT 1 36801U 10035G 15308.93773375 .00023132 00000-0 11844-2 0 9999 2 36801 098.0740 076.7586 0005663 023.9443 336.2050 15.16603844289143 ALMASAT-1 1 38078U 12006B 15309.87669513 .00045910 35750-5 74232-3 0 9993 2 38078 69.4504 241.1455 0442127 59.9087 304.5132 14.87384865196048 CUBEBUG-1 1 39153U 13018D 15309.78516431 .00001159 00000-0 16177-3 0 9998 2 39153 98.0115 33.7196 0017900 152.0217 208.1961 14.79503128136413 ESTCUBE-1 1 39161U 13021C 15309.72840103 .00000833 00000-0 14259-3 0 9998 2 39161 98.0648 31.3811 0008879 218.3139 141.7446 14.71374720134059 DUCHIFAT-1 1 40021U 14033M 15309.76645358 .00002351 00000-0 25835-3 0 9997 2 40021 97.9417 210.7328 0015040 80.4114 279.8801 14.88544333 74860 NANOSATCBR1 1 40024U 14033Q 15309.66476078 .00002247 00000-0 25017-3 0 9996 2 40024 97.9397 210.2869 0014203 80.5239 279.7582 14.88059289 74837 DTUSAT-2 1 40030U 14033W 15309.69155926 .00001574 00000-0 18117-3 0 9997 2 40030 97.9383 209.7063 0013735 75.3434 284.9303 14.87125247 74809 ANTELSAT 1 40034U 14033AA 15309.75740600 .00001199 00000-0 18934-3 0 9997 2 40034 97.9251 198.5624 0060578 26.9343 333.4997 14.72988464 74130 MET-2/21 1 22782U 93055A 15309.43880758 .00000060 00000-0 40847-4 0 9997 2 22782 82.5463 131.5947 0021221 285.8319 136.1869 13.83778124120130 OKEAN-4 1 23317U 94066A 15309.82558637 .00000887 00000-0 96371-4 0 9996 2 23317 82.5357 312.3634 0019033 216.5253 199.3727 14.86889284138356 NOAA-14 1 23455U 94089A 15309.51232433 -.00000005 00000-0 20113-4 0 9997 2 23455 98.7437 27.9964 0010145 42.8882 73.4788 14.14057331 75502 NOAA-15 1 25338U 98030A 15309.57520564 .00000104 00000-0 62798-4 0 9994 2 25338 98.7790 308.3531 0011592 115.5815 244.6564 14.25673286908989 RESURS 1 25394U 98043A 15308.90695713 .00000010 00000-0 22334-4 0 9993 2 25394 98.4841 259.0324 0000859 167.5237 259.4669 14.24460000900312 FENGYUN1 1 25730U 99025A 15309.81188329 .00000467 00000-0 27032-3 0 9994 2 25730 98.9551 274.7293 0020998 95.9197 323.7389 14.13681647849061 OKEAN-0 1 25860U 99039A 15308.90511315 .00000567 00000-0 89617-4 0 9996 2 25860 098.1137 277.3406 0000982 103.7613 309.0045 14.76181970876636 NOAA-16 1 26536U 00055A 15309.49339077 .00000017 00000-0 32950-4 0 9993 2 26536 98.9275 15.2276 0010422 187.6138 172.4877 14.13113550779610 NOAA-17 1 27453U 02032A 15309.57372939 .00000055 00000-0 41284-4 0 9994 2 27453 98.3560 288.6771 0012581 124.5469 235.6900 14.24906249694792 NOAA-18 1 28654U 05018A 15309.47729859 .00000091 00000-0 74735-4 0 9998 2 28654 99.1931 305.6329 0013409 286.1902 73.7792 14.12244664539019 NOAA-19 1 33591U 09005A 15309.46575119 .00000156 00000-0 10959-3 0 9990 2 33591 99.0079 259.7967 0014680 129.1032 231.1447 14.11997614347424 HUBBLE 1 20580U 90037B 15308.45560487 .00002158 00000-0 12608-3 0 9996 2 20580 28.4708 308.8893 0002648 304.5112 184.0287 15.07840717201004 ISS 1 25544U 98067A 15309.81789784 .00013916 00000-0 21144-3 0 9995 2 25544 51.6437 97.2215 0006609 110.9935 46.4217 15.54841262970078 CO-58 1 28895U 05043F 15309.77959237 .00000692 00000-0 14353-3 0 9997 2 28895 97.8213 130.1896 0016399 205.1656 154.8749 14.62958049534294 FALCON 1 30776U 07006E 15309.76154810 .00008670 00000-0 32761-3 0 9999 2 30776 35.4275 192.4316 0001283 329.0803 79.6332 15.26304315477936 MAST 1 31126U 07012K 15309.42896140 .00000404 00000-0 96948-4 0 9993 2 31126 97.9804 271.1967 0089835 214.7108 271.3708 14.56194614454047 CAPE1 1 31130U 07012P 15309.44622628 .00000622 00000-0 14438-3 0 9993 2 31130 98.0018 268.6629 0095782 235.4233 123.7900 14.55684169453438 COMPASS 1 32787U 08021E 15309.13998964 .00003218 00000-0 32847-3 0 9996 2 32787 97.6350 352.3989 0011652 308.9627 51.0552 14.91259892407513 AAUSAT2 1 32788U 08021F 15309.83737738 .00002245 00000-0 22457-3 0 9999 2 32788 97.6361 354.8336 0011052 302.2909 57.7239 14.92368272407725 DO-64 1 32789U 08021G 15309.22240196 .00006820 00000-0 53583-3 0 9997 2 32789 97.6400 7.3176 0008576 292.0305 141.2799 15.01181073408235 CO-66 1 32791U 08021J 15309.07907611 .00001933 00000-0 20996-3 0 9997 2 32791 97.6345 349.7525 0012688 317.5328 42.4907 14.89189530407282 RS-30 1 32953U 08025A 15309.89058947 .00000010 00000-0 -13620-7 0 9996 2 32953 82.5030 246.1072 0019310 128.0479 232.2350 12.43064719338210 METEOR-M 1 35865U 09049A 15309.72627304 .00000015 00000-0 25531-4 0 9994 2 35865 98.4852 344.8863 0003495 74.6522 34.2486 14.22053040318323 RS-38 1 35869U 09049E 15309.71204991 .00000014 00000-0 25153-4 0 9999 2 35869 98.4759 344.4331 0005462 63.9287 296.2463 14.22315078318376 JUGNU 1 37839U 11058B 15308.74401012 .00000417 00000-0 80244-4 0 9995 2 37839 19.9615 70.3922 0018901 155.0622 354.1736 14.12499412210117 SRMSAT 1 37841U 11058D 15309.80622321 .00000372 00000-0 59424-4 0 9990 2 37841 19.9713 93.5430 0011923 87.4054 66.2132 14.10506438209972 RAX-2 1 37853U 11061D 15308.98576693 .00010002 00000-0 59773-3 0 9992 2 37853 101.6987 229.2948 0191034 23.8343 337.1567 14.97410065218164 AUBIESAT 1 37854U 11061E 15309.75559413 .00009980 00000-0 57904-3 0 9997 2 37854 101.6883 234.6513 0181628 14.9714 345.6773 14.99636562218425 HRBE 1 37855U 11061F 15309.74422268 .00010106 00000-0 57159-3 0 9998 2 37855 101.6978 232.8716 0196604 18.1651 342.6453 14.98487998218341 HORYU-2 1 38340U 12025D 15309.88026641 .00001279 00000-0 19988-3 0 9998 2 38340 98.3310 283.6220 0012220 12.1807 347.9694 14.74605051186418 RS-40 1 38735U 12041C 15309.82268928 .00000040 00000-0 21992-3 0 9997 2 38735 82.4744 331.6694 0015819 229.2834 130.6868 12.42570509148508 PROITERES 1 38756U 12047B 15309.82496085 .00000632 00000-0 99537-4 0 9991 2 38756 98.2264 51.5684 0011576 200.4039 159.6701 14.75976753169895 BEESAT-3 1 39134U 13015E 15309.41213470 .00006536 00000-0 37003-3 0 9996 2 39134 64.8727 325.1916 0021885 236.2028 123.7013 15.13656001140066 BEESAT-2 1 39136U 13015G 15309.56489316 .00005654 00000-0 33869-3 0 9994 2 39136 64.8735 328.3361 0022072 234.5004 125.4061 15.11771733140026 ZACUBE-1 1 39417U 13066B 15309.10829226 .00001229 00000-0 16421-3 0 9999 2 39417 97.7138 6.2320 0060969 38.5276 322.0264 14.79999318105471 TRITON-1 1 39427U 13066M 15309.08139008 .00000969 00000-0 16456-3 0 9997 2 39427 97.6981 351.4297 0116770 77.3736 284.0497 14.66873355104527 DELFIN3XT 1 39428U 13066N 15309.20005869 .00001709 00000-0 28721-3 0 9990 2 39428 97.6995 349.6181 0124992 82.7006 278.8386 14.65762058104398 GOMX-1 1 39430U 13066Q 15309.63740137 .00000825 00000-0 15999-3 0 9995 2 39430 97.6939 342.4452 0154390 103.8789 257.9638 14.58278999103990 LO-74 1 39440U 13066AA 15309.40496926 .00000994 00000-0 14774-3 0 9992 2 39440 97.7073 0.6505 0082781 52.0325 308.8326 14.74794283105144 PUCPSAT-1 1 39442U 13066AC 15309.82911327 .00001787 00000-0 19369-3 0 9993 2 39442 97.7254 16.5332 0033122 17.7096 342.5268 14.89046842104943 SPROUT 1 39770U 14029E 15309.10066408 .00003187 00000-0 38572-3 0 9992 2 39770 97.8732 44.0508 0010916 100.4840 259.7647 14.84335905 78534 POPSAT-HIP1 1 40028U 14033U 15309.74869931 .00001385 00000-0 15916-3 0 9992 2 40028 97.9422 210.2407 0015573 78.2594 282.0404 14.87367168 74823 EO-80 1 40032U 14033Y 15309.77458527 .00001577 00000-0 18183-3 0 9997 2 40032 97.9392 209.8009 0013695 75.3281 284.9451 14.87053728 74816 VELOX-1 1 40057U 14034E 15309.88483467 .00001532 00000-0 22902-3 0 9993 2 40057 98.2083 30.2739 0012120 141.1792 219.0288 14.76189928 72782 DAURIA DX 1 1 40071U 14037C 15309.85609599 .00000722 00000-0 10154-3 0 9991 2 40071 98.3463 27.0235 0009310 139.4160 220.7749 14.80567046 71755 UKUBE-1 1 40074U 14037F 15309.84674784 .00001512 00000-0 19524-3 0 9999 2 40074 98.3484 28.2684 0005430 140.9884 219.1715 14.82551998 71825 HODOYOSHI-1 1 40299U 14070B 15309.84461162 .00003432 00000-0 16031-3 0 9992 2 40299 97.4479 29.6085 0013151 6.7237 126.4332 15.20414601 55333 CHUBUSAT-1 1 40300U 14070C 15309.88292801 .00003871 00000-0 18977-3 0 9999 2 40300 97.4445 28.5122 0022183 5.2175 86.0166 15.18516716 55275 QSAT-EOS 1 40301U 14070D 15309.88205873 .00006790 00000-0 32724-3 0 9992 2 40301 97.4400 27.7361 0031107 4.4570 86.5848 15.18619054 55236 TSUBAME 1 40302U 14070E 15309.77173707 .00004021 00000-0 22095-3 0 9996 2 40302 97.4375 25.5322 0042607 10.6901 142.2405 15.13886486 55087 FIREBIRD FU3 1 40377U 15003B 15309.79979217 .00009984 00000-0 47697-3 0 9995 2 40377 99.1018 9.5505 0153230 148.9822 212.0563 15.09437598 41907 FIREBIRD FU4 1 40378U 15003C 15309.73078933 .00010590 00000-0 50503-3 0 9990 2 40378 99.1017 9.4767 0153530 149.1669 211.8685 15.09436843 41893 GRIFEX 1 40379U 15003D 15309.71612835 .00008023 00000-0 39384-3 0 9996 2 40379 99.1036 9.1780 0155591 151.0784 209.9175 15.08360737 41873 LAMBDA-SAT 1 40458U 98067GB 15136.30676273 .20783109 12527-4 14817-2 0 9995 2 40458 051.6075 233.7697 0010355 318.5347 043.1720 16.39926603 21161 NO-84 1 40654U 15025X 15309.56822207 .00021257 00000-0 51512-3 0 01774 2 40654 054.9952 325.4325 0229669 236.1193 121.7858 15.18230444025616 NO-83 1 40655U 15025X 15309.53523872 .00029719 00000-0 69528-3 0 01854 2 40655 054.9962 324.5876 0221968 236.6267 121.3353 15.20237032025620 DEORBITSAIL 1 40719U 15032E 15309.65251827 .00002066 00000-0 31514-3 0 9997 2 40719 98.0380 198.0026 0015550 236.1979 123.7750 14.74881907 17383 NUDT-PHONESAT 1 40900U 15049B 15309.89471634 .00008425 00000-0 46753-3 0 9999 2 40900 97.4494 317.0173 0017884 111.2071 337.4390 15.13856497 7101 XW-2D 1 40907U 15049J 15309.80212380 .00003171 00000-0 18597-3 0 9996 2 40907 97.4527 316.8600 0017349 90.2694 355.8372 15.12348934 7071 XW-2F 1 40910U 15049M 15309.87165313 .00004847 00000-0 28247-3 0 9994 2 40910 97.4564 316.9397 0018646 88.8776 356.6142 15.12306885 6976 XW-2B 1 40911U 15049N 15309.80160508 .00003288 00000-0 19257-3 0 9998 2 40911 97.4577 316.8903 0017231 90.3593 355.9579 15.12376423 6978 DCBB 1 40912U 15049P 15309.88409358 .00005803 00000-0 32114-3 0 9998 2 40912 97.4565 317.0781 0019100 87.8793 357.4607 15.14073341 6999 TW-1C 1 40926U 15051B 15309.66017841 .00015152 00000-0 50936-3 0 9994 2 40926 97.3043 344.4977 0017360 129.5011 350.1556 15.30765150 6344 TW-1A 1 40928U 15051D 15310.03879088 .00048545 00000-0 16387-2 0 9991 2 40928 97.2939 344.8463 0016309 141.7837 276.7743 15.30399078 6407 IO-86 1 40931U 15052B 15308.25397330 .00000981 00000-0 47989-4 0 9998 2 40931 5.9915 125.7285 0013420 155.2820 204.7871 14.76367527 5485 AAUSat-5 1 40948U 98067GZ 15309.80847593 .00074181 00000-0 93469-3 0 9992 2 40948 51.6402 96.7387 0006078 118.6690 241.4914 15.58924927 4862 GomX-3 1 40949U 98067HA 15309.81640160 .00056594 00000-0 73989-3 0 9998 2 40949 51.6416 96.7925 0006884 121.1296 239.0373 15.58053745 4865 LQSat 1 40958U 15057A 15309.70763420 .00000375 00000-0 66481-4 0 9995 2 40958 98.0385 22.2896 0018829 149.1525 211.0796 14.72733066 4341 AO-85 1 40967U 15058D 15309.34512913 .00001833 00000-0 20584-3 0 00315 2 40967 064.7782 207.4152 0217970 273.4912 187.1222 14.74363405003965 /EX